Weather History for KMQS - December, 2013

Change the Weather History Date:

Monday, December 9, 2013

  Actual Average (KLNS) Record (KLNS)
Temperature  
Mean Temperature 32 °F -  
Max Temperature 33 °F 45 °F 65 °F (1980)
Min Temperature 30 °F 26 °F 6 °F (1989)
Degree Days  
Heating Degree Days 34    
Moisture  
Dew Point 33 °F    
Average Humidity 100    
Maximum Humidity 100    
Minimum Humidity 100    
Precipitation  
Precipitation 1.26 in - - ()
Sea Level Pressure  
Sea Level Pressure 30.10 in    
Wind  
Wind Speed 4 mph (NW)    
Max Wind Speed 10 mph    
Max Gust Speed 17 mph    
Visibility 2 miles    
Events Fog , Rain , Snow    
Averages and records for this station are not official NWS values.
T = Trace of Precipitation, MM = Missing Value Source: NWS Daily Summary

Daily Weather History Graph

Daily Weather History Graph

Search for Another Location

Airport or City:

Trip Planner

Search our weather history database for the weather conditions in past years. The results will help you decide how hot, cold, wet, or windy it might be!

Date:

Astronomy

Dec. 09, 2013 Rise Set
Actual Time 7:13 AM EST 4:38 PM EST
Civil Twilight 6:43 AM EST 5:08 PM EST
Nautical Twilight 6:09 AM EST 5:42 PM EST
Astronomical Twilight 5:36 AM EST 6:15 PM EST
Moon 12:05 PM EST (12/9) No Moon Set
Length of Visible Light 10h 25m
Length of Day
9h 24m
Waxing Crescent, 51% of the Moon is Illuminated
Dec 9
Waxing Crescent
Dec 17
Full
Dec 25
Last Quarter
Jan 1
New
Jan 7
First Quarter

Hourly Weather History & Observations

Time (EST) Temp. Windchill Dew Point Humidity Pressure Visibility Wind Dir Wind Speed Gust Speed Precip Events Conditions
12:15 AM 30.2 °F 26.7 °F 30.2 °F 100% 30.28 in 3.0 mi NE 3.5 mph - N/A Snow Light Snow
12:35 AM 30.2 °F 26.7 °F 30.2 °F 100% 30.28 in 1.2 mi NE 3.5 mph - 0.01 in Snow Light Snow
12:55 AM 30.2 °F 25.4 °F 30.2 °F 100% 30.27 in 1.2 mi NE 4.6 mph - 0.02 in Snow Light Snow
1:15 AM - - - N/A% 30.26 in 1.5 mi ENE 4.6 mph - 0.01 in   Overcast
1:35 AM 32.0 °F 28.7 °F 32.0 °F 100% 30.25 in 1.8 mi NE 3.5 mph - 0.06 in Rain Light Rain
1:55 AM 32.0 °F 27.5 °F 32.0 °F 100% 30.24 in 3.0 mi NE 4.6 mph - 0.09 in Rain Light Rain
2:15 AM 32.0 °F 26.4 °F 32.0 °F 100% 30.24 in 3.0 mi NNE 5.8 mph - 0.03 in Rain Rain
2:35 AM 32.0 °F 27.5 °F 32.0 °F 100% 30.21 in 3.0 mi NE 4.6 mph - 0.09 in Rain Rain
2:55 AM 32.0 °F 27.5 °F 32.0 °F 100% 30.19 in 5.0 mi NE 4.6 mph - 0.11 in Rain Light Rain
3:15 AM 32.0 °F 28.7 °F 32.0 °F 100% 30.18 in 3.0 mi NE 3.5 mph - 0.01 in Rain Light Rain
3:35 AM 32.0 °F 23.6 °F 32.0 °F 100% 30.15 in 1.5 mi ENE 10.4 mph 17.3 mph 0.04 in   Overcast
3:55 AM 32.0 °F - 32.0 °F 100% 30.15 in 1.8 mi Calm Calm - 0.07 in Rain Rain
4:15 AM 32.0 °F - 32.0 °F 100% 30.17 in 2.0 mi Calm Calm - 0.02 in Rain Light Rain
4:35 AM 32.0 °F 28.7 °F 32.0 °F 100% 30.15 in 1.2 mi NE 3.5 mph - 0.09 in Rain Rain
4:55 AM 32.0 °F - 32.0 °F 100% 30.15 in 1.5 mi Calm Calm - 0.14 in Rain Rain
5:15 AM 32.0 °F - 32.0 °F 100% 30.15 in 2.5 mi Calm Calm - 0.04 in Rain Light Rain
5:35 AM 32.0 °F 28.7 °F 32.0 °F 100% 30.14 in 3.0 mi NE 3.5 mph - 0.06 in Rain Light Rain
5:55 AM 32.0 °F - 32.0 °F 100% 30.14 in 5.0 mi Calm Calm - 0.06 in Rain Light Rain
6:15 AM 33.8 °F 28.6 °F 33.8 °F 100% 30.13 in 2.5 mi ENE 5.8 mph - N/A Rain Light Rain
6:35 AM 33.8 °F 30.8 °F 33.8 °F 100% 30.12 in 3.0 mi NNE 3.5 mph - N/A Rain Light Rain
6:55 AM 33.8 °F - 33.8 °F 100% 30.14 in 2.5 mi Calm Calm - 0.04 in Snow Light Snow
7:15 AM 33.8 °F 30.8 °F 33.8 °F 100% 30.13 in 4.0 mi North 3.5 mph - N/A   Overcast
7:35 AM 33.8 °F - 33.8 °F 100% 30.12 in 5.0 mi Calm Calm - N/A   Overcast
7:55 AM 33.8 °F 29.6 °F 33.8 °F 100% 30.10 in 9.0 mi ENE 4.6 mph - N/A   Overcast
8:15 AM 33.8 °F 30.8 °F 33.8 °F 100% 30.10 in 7.0 mi ENE 3.5 mph - N/A   Overcast
8:35 AM 33.8 °F 29.6 °F 33.8 °F 100% 30.09 in 5.0 mi East 4.6 mph - N/A   Overcast
8:55 AM 33.8 °F - 33.8 °F 100% 30.10 in 5.0 mi Calm Calm - N/A   Overcast
9:15 AM 33.8 °F 30.8 °F 33.8 °F 100% 30.10 in 4.0 mi East 3.5 mph - N/A   Overcast
9:35 AM 33.8 °F - 33.8 °F 100% 30.11 in 4.0 mi Calm Calm - N/A   Overcast
9:55 AM 33.8 °F - 33.8 °F 100% 30.10 in 3.0 mi Calm Calm - N/A   Overcast
10:15 AM 33.8 °F - 33.8 °F 100% 30.10 in 2.0 mi Calm Calm - N/A   Overcast
10:35 AM 33.8 °F - 33.8 °F 100% 30.09 in 1.0 mi Calm Calm - N/A   Overcast
10:55 AM 33.8 °F 29.6 °F 33.8 °F 100% 30.08 in 1.0 mi WNW 4.6 mph - N/A Snow Light Snow
11:15 AM 33.8 °F 29.6 °F 33.8 °F 100% 30.07 in 0.8 mi WNW 4.6 mph - 0.01 in Snow Light Snow
11:35 AM 33.8 °F 30.8 °F 33.8 °F 100% 30.05 in 0.2 mi WNW 3.5 mph - 0.03 in Snow Light Snow
11:55 AM 33.8 °F - 33.8 °F 100% 30.05 in 0.2 mi Calm Calm - 0.05 in   Overcast
12:15 PM 33.8 °F - 33.8 °F 100% 30.03 in 0.2 mi Calm Calm - N/A Fog Fog
12:35 PM 33.8 °F - 33.8 °F 100% 30.03 in 0.2 mi Calm Calm - 0.01 in Fog Fog
12:55 PM 33.8 °F 29.6 °F 33.8 °F 100% 30.03 in 0.2 mi West 4.6 mph - 0.02 in Snow Light Snow
1:15 PM 33.8 °F - 33.8 °F 100% 30.03 in 0.2 mi Calm Calm - 0.03 in Snow Light Snow
1:35 PM 33.8 °F 29.6 °F 33.8 °F 100% 30.02 in 0.2 mi West 4.6 mph - 0.05 in Snow Light Snow
1:55 PM 33.8 °F - 33.8 °F 100% 30.01 in 0.2 mi Calm Calm - 0.14 in Snow Light Snow
2:15 PM 33.8 °F 30.8 °F 33.8 °F 100% 30.02 in 0.2 mi West 3.5 mph - 0.50 in Snow Light Snow
2:35 PM 33.8 °F 27.7 °F 33.8 °F 100% 30.03 in 0.2 mi West 6.9 mph - 0.52 in Fog Fog
2:55 PM 33.8 °F 29.6 °F 33.8 °F 100% 30.03 in 1.0 mi WSW 4.6 mph - 0.52 in Snow Light Snow
3:15 PM 33.8 °F 28.6 °F 33.8 °F 100% 30.03 in 1.2 mi WNW 5.8 mph - N/A   Overcast
3:35 PM 33.8 °F 27.7 °F 33.8 °F 100% 30.03 in 1.5 mi West 6.9 mph - N/A   Overcast
3:55 PM 33.8 °F 27.7 °F 33.8 °F 100% 30.03 in 0.5 mi West 6.9 mph - N/A   Overcast
4:15 PM 33.8 °F 27.7 °F 33.8 °F 100% 30.03 in 0.2 mi West 6.9 mph - N/A Fog Fog
4:35 PM 33.8 °F 29.6 °F 33.8 °F 100% 30.03 in 0.2 mi West 4.6 mph - N/A Fog Fog
4:55 PM 33.8 °F 29.6 °F 33.8 °F 100% 30.03 in 0.5 mi West 4.6 mph - N/A Fog Fog
5:15 PM 33.8 °F 28.6 °F 33.8 °F 100% 30.02 in 0.2 mi WNW 5.8 mph - N/A Fog Fog
5:35 PM 33.8 °F 26.4 °F 33.8 °F 100% 30.03 in 0.2 mi WNW 9.2 mph - N/A Fog Fog
5:55 PM 33.8 °F 27.7 °F 33.8 °F 100% 30.03 in 0.2 mi WNW 6.9 mph - N/A Fog Fog
6:15 PM 33.8 °F 27.7 °F 33.8 °F 100% 30.04 in 0.2 mi WNW 6.9 mph - N/A Fog Fog
6:35 PM 33.8 °F 26.4 °F 33.8 °F 100% 30.05 in 0.2 mi WNW 9.2 mph - N/A   Overcast
6:55 PM 33.8 °F 27.7 °F 33.8 °F 100% 30.06 in 0.2 mi West 6.9 mph - N/A Fog Fog
7:15 PM 33.8 °F 26.4 °F 33.8 °F 100% 30.07 in 0.2 mi WNW 9.2 mph - N/A Fog Fog
7:35 PM 33.8 °F 26.4 °F 33.8 °F 100% 30.07 in 0.2 mi WNW 9.2 mph - N/A Fog Fog
7:55 PM 33.8 °F 27.0 °F 33.8 °F 100% 30.08 in 0.2 mi NW 8.1 mph - N/A Fog Fog
8:15 PM 33.8 °F 28.6 °F 33.8 °F 100% 30.07 in 0.2 mi WNW 5.8 mph - N/A Fog Fog
8:35 PM 33.8 °F 27.7 °F 33.8 °F 100% 30.07 in 0.2 mi WNW 6.9 mph - N/A Fog Fog
8:55 PM 33.8 °F 28.6 °F 33.8 °F 100% 30.07 in 0.2 mi WNW 5.8 mph - N/A Fog Fog
9:15 PM 33.8 °F 27.7 °F 33.8 °F 100% 30.07 in 0.2 mi WNW 6.9 mph - N/A Fog Fog
9:35 PM 33.8 °F 28.6 °F 33.8 °F 100% 30.06 in 0.2 mi WNW 5.8 mph - N/A Fog Fog
9:55 PM 33.8 °F 26.4 °F 33.8 °F 100% 30.07 in 0.2 mi NW 9.2 mph - N/A Fog Fog
10:15 PM 33.8 °F 26.4 °F 33.8 °F 100% 30.07 in 0.2 mi WNW 9.2 mph - N/A Fog Fog
10:35 PM 33.8 °F 26.4 °F 33.8 °F 100% 30.07 in 0.2 mi WNW 9.2 mph - N/A Fog Fog
10:55 PM 33.8 °F 28.6 °F 33.8 °F 100% 30.06 in 0.5 mi West 5.8 mph - N/A Fog Fog
11:15 PM 33.8 °F 28.6 °F 33.8 °F 100% 30.06 in 0.5 mi WNW 5.8 mph - N/A Fog Fog
11:35 PM 33.8 °F 27.7 °F 33.8 °F 100% 30.06 in 0.8 mi WNW 6.9 mph - N/A   Overcast
11:55 PM 33.8 °F 28.6 °F 33.8 °F 100% 30.05 in 0.5 mi WNW 5.8 mph - N/A Fog Fog